Lid_Strength_Index
1 2 2 2 3 4 6 6 6 6 6 6 6 7 6 7 5 6 5 6 6 6
2 3 2 4 5 5 5 6 6 6 6 6 6 6 7 7 6 6 6 6 6 6
2 2 4 5 5 5 6 7 7 7 6 6 6 6 7 8 6 7 7 7 6 6
4 5 6 6 6 6 7 7 7 6 6 8 8 8 8 8 7 7 7 7 7 8
6 6 6 6 7 8 8 8 7 7 8 9 10 9 9 9 9 8 8 8 9 10
8 7 7 7 7 8 7 8 9 9 10 11 10 11 10 9 8 8 9 9 10 10
7 7 7 8 7 8 9 10 11 11 11 11 11 11 10 9 9 9 9 9 10 10
8 8 7 8 7 10 11 11 11 12 13 12 12 11 12 11 10 10 11 10 9 10
7 7 8 8 10 10 11 12 13 13 13 13 11 10 10 11 11 10 11 11 11 11
7 8 8 9 10 10 13 13 13 13 13 13 13 10 10 9 11 11 11 12 12 11
8 9 9 8 9 11 12 12 13 13 14 14 12 11 11 11 12 10 10 11 12 13
8 8 8 8 9 10 11 12 13 13 14 15 14 11 11 13 12 11 12 11 11 12
7 7 9 9 9 10 11 11 12 13 14 12 15 12 12 13 13 13 12 11 12 10
8 8 9 9 10 10 10 11 12 13 14 15 14 14 12 12 13 13 13 12 12 12